[[{"header":{"parameterUnit":"m.s-1","parameterCategory":1,"la1":30.2991,"la2":30.254,"lo1":-89.0895,"lo2":-89.0444,"dy":0.0017,"dx":0.0017,"nx":28,"ny":28,"refTime":"2024-05-31T09:00:00:Z","depth":0,"parameterNumber":2,"parameterNumberName":"U-component_of_WINDS"},"data":[0,0,0,0,0,0,0,0,0,0,0,0,0,0,0,0,0,0,0,0,0,0,0,0,0,0,0,0,0,0,0,0,0,0,0,0,0,0,0,0,0,0,0,0,0,0,0,0,0,0,0,0,0,0,0,0,0,0,-4.8308,-4.8309,0,-4.84,-4.8401,-4.8402,-4.8407,-4.8406,-4.8405,-4.8404,-4.8493,-4.8496,-4.8499,0,0,0,0,0,0,0,0,0,0,0,0,0,-4.8133,-4.8136,-4.8308,-4.8309,-4.831,-4.84,-4.8401,-4.8402,-4.8407,-4.8406,-4.8405,-4.8403,-4.8492,-4.8496,-4.85,0,0,0,0,0,0,0,0,0,0,0,0,0,-4.8215,-4.8137,-4.8308,-4.8324,-4.8326,-4.8399,-4.8401,-4.8402,-4.8407,-4.8406,-4.8404,-4.8403,-4.849,-4.8495,-4.85,-4.8562,0,0,-4.8516,-4.8518,0,0,0,0,0,0,0,0,-4.8211,-4.8222,-4.832,-4.8323,-4.8326,-4.839,-4.8372,-4.8456,-4.8408,-4.8376,-4.8404,-4.8402,-4.846,-4.8467,-4.8488,-4.8567,-4.857,-4.8516,-4.8519,-4.8521,-4.8523,0,0,0,0,0,0,0,-4.8205,-4.8218,-4.8344,-4.8322,-4.8325,-4.8325,-4.8335,-4.8388,-4.8425,-4.8379,-4.838,-4.8391,-4.8461,-4.8483,-4.849,-4.8572,-4.8516,-4.852,-4.8523,-4.8525,-4.8705,-4.8707,0,0,0,0,0,0,-4.8197,-4.8213,-4.8341,-4.8347,-4.8263,-4.8329,-4.834,-4.8371,-4.8425,-4.8432,-4.8392,-4.839,-4.8475,-4.8484,-4.8493,-4.8568,-4.8521,-4.8526,-4.8529,-4.8704,-4.8706,-4.8708,0,0,0,0,0,0,-4.8193,-4.8208,-4.8338,-4.828,-4.8297,-4.8334,-4.8368,-4.8374,-4.8396,-4.8435,-4.8441,-4.8408,-4.8474,-4.8486,-4.8545,-4.8571,-4.8528,-4.8533,-4.8702,-4.8704,-4.8707,-4.8719,0,0,0,0,0,0,-4.8188,-4.8207,-4.8232,-4.8281,-4.83,-4.839,-4.837,-4.8377,-4.8405,-4.8404,-4.8451,-4.8457,-4.8474,-4.8538,-4.855,-4.8577,-4.8537,-4.8699,-4.8703,-4.8706,-4.8716,-4.8722,-4.8726,0,0,0,0,0,-4.8182,-4.8231,-4.8233,-4.8248,-4.8332,-4.8391,-4.8402,-4.8421,-4.8407,-4.8431,-4.8457,-4.8456,-4.8567,-4.8544,-4.8558,-4.8587,-4.8698,-4.8702,-4.8706,-4.8714,-4.8721,-4.8726,0,0,0,0,0,0,-4.8181,-4.8237,-4.824,-4.8307,-4.8345,-4.8392,-4.8423,-4.8427,-4.8468,-4.8465,-4.8486,-4.8497,-4.8555,-4.8578,-4.8551,-4.8649,-4.8631,-4.8638,-4.8632,-4.8639,-4.8644,-4.8635,-4.8541,0,0,0,0,0,-4.819,-4.8234,-4.828,-4.8334,-4.8353,-4.8385,-4.8412,-4.8424,-4.8462,-4.8478,-4.8507,-4.8544,-4.8587,-4.8615,-4.8657,-4.8721,-4.873,-4.8748,-4.8753,-4.8757,-4.8761,-4.8795,-4.8803,-4.8721,-4.8721,-4.8721,0,0,-4.8206,-4.8242,-4.8268,-4.8335,-4.8366,-4.841,-4.8398,-4.8446,-4.8478,-4.8484,-4.8542,-4.8566,-4.8608,-4.867,-4.8698,-4.869,-4.8787,-4.8762,-4.8765,-4.8767,-4.88,-4.8808,-4.8815,-4.8724,-4.8723,-4.8723,0,0,-4.8257,-4.829,-4.8338,-4.837,-4.8417,-4.8438,-4.845,-4.8497,-4.8513,-4.8572,-4.8577,-4.8616,-4.869,-4.872,-4.8744,-4.8809,-4.8809,-4.8823,-4.8847,-4.888,-4.8886,-4.8892,-4.8913,-4.8921,-4.8828,-4.8828,-4.8828,0,-4.827,-4.8339,-4.8362,-4.841,-4.8438,-4.8449,-4.8496,-4.8525,-4.8583,-4.8602,-4.8592,-4.8686,-4.8715,-4.8783,-4.8799,-4.882,-4.8832,-4.8815,-4.8884,-4.889,-4.8896,-4.8916,-4.8924,-4.8829,-4.8829,-4.8829,-4.8829,0,-4.8352,-4.84,-4.8433,-4.849,-4.8522,-4.857,-4.8599,-4.8629,-4.8639,-4.8661,-4.872,-4.8756,-4.8805,-4.8823,-4.8832,-4.8892,-4.8885,-4.888,-4.8861,-4.8904,-4.8923,-4.8931,-4.883,-4.883,-4.883,-4.8829,0,0,-4.8403,-4.8474,-4.8485,-4.8511,-4.8564,-4.86,-4.8649,-4.8698,-4.8722,-4.8763,-4.8802,-4.8865,-4.8861,-4.8889,-4.8902,-4.8932,-4.8978,-4.8923,-4.8924,-4.8929,-4.9045,-4.9046,-4.9054,-4.8981,-4.8982,-4.8983,-4.904,0,-4.8458,-4.8545,-4.8567,-4.864,-4.8683,-4.8695,-4.8736,-4.8773,-4.8795,-4.8834,-4.8858,-4.8902,-4.8894,-4.8911,-4.8941,-4.8966,-4.9001,-4.8963,-4.9014,-4.9016,-4.9,-4.9065,-4.9066,-4.9118,-4.9048,-4.9049,-4.905,0,-4.8533,-4.8576,-4.8654,-4.8702,-4.872,-4.8757,-4.8804,-4.8843,-4.8884,-4.8898,-4.8931,-4.8941,-4.899,-4.8972,-4.9038,-4.9012,-4.9035,-4.9051,-4.9053,-4.9056,-4.9033,-4.9066,-4.9135,-4.9142,-4.9063,-4.9062,-4.9061,0,-4.8559,-4.8637,-4.8693,-4.8715,-4.8773,-4.8798,-4.8823,-4.8864,-4.8892,-4.8933,-4.8951,-4.8998,-4.9022,-4.9057,-4.9079,-4.9064,-4.9143,-4.9127,-4.9154,-4.9154,-4.9167,-4.9166,-4.9238,-4.9188,-4.9188,-4.9187,-4.9187,0,-4.8617,-4.8663,-4.8705,-4.8739,-4.8791,-4.8817,-4.8867,-4.8892,-4.8929,-4.8967,-4.898,-4.9015,-4.9044,-4.9083,-4.9101,-4.9153,-4.9164,-4.9175,-4.9179,-4.9172,-4.9171,-4.9185,-4.9181,-4.9189,-4.9189,-4.9189,-4.9188,0,-4.8653,-4.8683,-4.8745,-4.8796,-4.8809,-4.8845,-4.8888,-4.892,-4.8944,-4.8992,-4.9005,-4.9042,-4.9088,-4.9115,-4.9174,-4.9186,-4.9242,-4.9246,-4.9228,-4.9229,-4.9254,-4.925,-4.9335,-4.9347,-4.9291,-4.9292,-4.9292,0,-4.8686,-4.8721,-4.8777,-4.8804,-4.883,-4.8874,-4.8903,-4.8931,-4.896,-4.9011,-4.9037,-4.9085,-4.9125,-4.9198,-4.9229,-4.9274,-4.9277,-4.9304,-4.9283,-4.9275,-4.9274,-4.927,-4.9273,-4.9306,-4.9306,-4.9307,-4.9307,0,-4.874,-4.8754,-4.8796,-4.8845,-4.888,-4.8919,-4.8957,-4.8979,-4.9012,-4.9045,-4.9094,-4.9125,-4.9185,-4.9232,-4.928,-4.9304,-4.931,-4.9314,-4.9322,-4.9314,-4.9301,-4.9306,-4.9234,-4.9311,-4.931,-4.931,-4.931,-4.931,-4.8774,-4.8806,-4.885,-4.8897,-4.8929,-4.8965,-4.8998,-4.9027,-4.9069,-4.9121,-4.9135,-4.9185,-4.9226,-4.9291,-4.9317,-4.9356,-4.9351,-4.9363,-4.9366,-4.9368,-4.9367,-4.9298,-4.9365,-4.9365,-4.9365,-4.9365,-4.9365,0,-4.8826,-4.8856,-4.8899,-4.8953,-4.899,-4.8996,-4.904,-4.9069,-4.9114,-4.9152,-4.9192,-4.9247,-4.9293,-4.9328,-4.9375,-4.9399,-4.9403,-4.941,-4.9407,-4.9412,-4.937,-4.9357,-4.9406,-4.9406,-4.9406,-4.9406,-4.9406,-4.9406,-4.8858,-4.8912,-4.8931,-4.9001,-4.903,-4.9081,-4.9105,-4.9138,-4.9168,-4.923,-4.9269,-4.9293,-4.9329,-4.9379,-4.9421,-4.943,-4.9445,-4.9451,-4.946,-4.942,-4.9415,-4.9411,-4.9398,-4.9455,-4.9455,-4.9499,-4.9499,-4.9499]},{"header":{"parameterUnit":"m.s-1","parameterCategory":1,"la1":30.2991,"la2":30.254,"lo1":-89.0895,"lo2":-89.0444,"dy":0.0017,"dx":0.0017,"nx":28,"ny":28,"refTime":"2024-05-31T09:00:00:Z","depth":0,"parameterNumber":3,"parameterNumberName":"V-component_of_WINDS"},"data":[0,0,0,0,0,0,0,0,0,0,0,0,0,0,0,0,0,0,0,0,0,0,0,0,0,0,0,0,0,0,0,0,0,0,0,0,0,0,0,0,0,0,0,0,0,0,0,0,0,0,0,0,0,0,0,0,0,0,4.1077,4.1077,0,4.1083,4.1083,4.1083,4.1052,4.1051,4.105,4.1049,4.1054,4.1055,4.1056,0,0,0,0,0,0,0,0,0,0,0,0,0,4.1039,4.104,4.1077,4.1077,4.1077,4.1083,4.1083,4.1083,4.1052,4.1051,4.105,4.1049,4.1053,4.1055,4.1056,0,0,0,0,0,0,0,0,0,0,0,0,0,4.1051,4.104,4.1077,4.1063,4.1061,4.1083,4.1083,4.1083,4.1052,4.1051,4.105,4.1048,4.1053,4.1054,4.1056,4.1091,0,0,4.106,4.1061,0,0,0,0,0,0,0,0,4.1051,4.1053,4.1065,4.1064,4.1062,4.1065,4.1071,4.1086,4.1053,4.1056,4.1049,4.1048,4.1059,4.1059,4.1063,4.1091,4.1091,4.106,4.1061,4.1062,4.1062,0,0,0,0,0,0,0,4.105,4.1052,4.1079,4.1065,4.1063,4.1056,4.1056,4.1074,4.1064,4.1055,4.1053,4.1054,4.1058,4.1062,4.1063,4.1092,4.106,4.1061,4.1062,4.1063,4.115,4.1151,0,0,0,0,0,0,4.1051,4.1052,4.1079,4.108,4.1053,4.1057,4.1058,4.1066,4.1064,4.1063,4.1055,4.1053,4.106,4.1062,4.1063,4.1105,4.1062,4.1063,4.1064,4.1148,4.115,4.1151,0,0,0,0,0,0,4.105,4.1054,4.1079,4.1065,4.1068,4.1059,4.1069,4.1066,4.1071,4.1064,4.1062,4.1062,4.1059,4.1061,4.1085,4.1104,4.1064,4.1065,4.1146,4.1149,4.1151,4.1188,0,0,0,0,0,0,4.105,4.1054,4.1067,4.1066,4.1069,4.11,4.107,4.1068,4.1074,4.107,4.107,4.1068,4.1058,4.1083,4.1086,4.1106,4.1066,4.1145,4.1147,4.115,4.1185,4.1191,4.1196,0,0,0,0,0,4.1048,4.1077,4.1068,4.1071,4.1085,4.1102,4.1103,4.1092,4.1075,4.1089,4.1085,4.1068,4.1102,4.1085,4.1089,4.1109,4.1143,4.1147,4.115,4.1182,4.119,4.1196,0,0,0,0,0,0,4.108,4.1076,4.1066,4.1096,4.1099,4.1096,4.1113,4.11,4.1108,4.1105,4.109,4.109,4.1116,4.1115,4.1096,4.1144,4.112,4.1124,4.1143,4.115,4.1156,4.1155,4.1067,0,0,0,0,0,4.1091,4.1105,4.1101,4.1127,4.1129,4.1121,4.1128,4.1119,4.1122,4.1123,4.112,4.1124,4.1135,4.1143,4.1153,4.1185,4.1184,4.1201,4.1207,4.1211,4.1215,4.1232,4.1239,4.1162,4.1162,4.1162,0,0,4.1112,4.1112,4.1121,4.1133,4.1135,4.115,4.1122,4.1139,4.115,4.1125,4.1147,4.1146,4.1149,4.1177,4.1189,4.1177,4.1236,4.1216,4.1219,4.122,4.1236,4.1244,4.125,4.1164,4.1164,4.1164,0,0,4.1159,4.116,4.1182,4.1185,4.1189,4.1183,4.1189,4.1188,4.1186,4.1209,4.1191,4.1204,4.1223,4.1226,4.123,4.128,4.1265,4.1284,4.1314,4.1331,4.1337,4.1342,4.136,4.1366,4.1287,4.1288,4.1288,0,4.1185,4.1207,4.1195,4.1213,4.1219,4.1199,4.1221,4.1224,4.1231,4.1235,4.1222,4.1247,4.1247,4.1276,4.1288,4.1292,4.1298,4.1283,4.1337,4.1342,4.1347,4.1364,4.137,4.129,4.1289,4.1289,4.1289,0,4.1239,4.1255,4.1272,4.128,4.1288,4.1308,4.1299,4.1309,4.1299,4.1295,4.1319,4.1319,4.1329,4.1335,4.1326,4.1363,4.1355,4.134,4.1315,4.1357,4.1372,4.1379,4.1293,4.1292,4.1291,4.1291,0,0,4.1304,4.1307,4.1313,4.1317,4.132,4.1332,4.1351,4.1362,4.137,4.1376,4.1392,4.141,4.1396,4.1401,4.1392,4.1407,4.1447,4.139,4.1389,4.14,4.1487,4.1499,4.1506,4.1437,4.1439,4.1439,4.1487,0,4.135,4.1384,4.1375,4.1409,4.1423,4.1405,4.1422,4.1426,4.1423,4.1435,4.1431,4.1444,4.1425,4.1428,4.1442,4.1439,4.1464,4.1435,4.1452,4.1452,4.1451,4.1514,4.1526,4.1571,4.1493,4.1494,4.1495,0,4.1408,4.1417,4.1452,4.1454,4.146,4.1475,4.1485,4.1496,4.15,4.1497,4.1503,4.1492,4.1511,4.1487,4.1514,4.1495,4.1501,4.15,4.1502,4.1502,4.1476,4.1516,4.1585,4.1592,4.1504,4.1504,4.1503,0,4.1452,4.1473,4.1497,4.1501,4.1503,4.1515,4.1516,4.1519,4.1527,4.1535,4.1539,4.155,4.1555,4.1563,4.1555,4.1538,4.1583,4.1558,4.158,4.1581,4.159,4.1589,4.166,4.1595,4.1595,4.1595,4.1595,0,4.1504,4.1526,4.1517,4.1532,4.1557,4.1546,4.1571,4.157,4.1573,4.1588,4.1572,4.1586,4.1574,4.1587,4.158,4.1603,4.1606,4.1604,4.1602,4.1605,4.1605,4.1608,4.1605,4.1596,4.1596,4.1596,4.1595,0,4.1557,4.1552,4.1577,4.1578,4.1579,4.1597,4.1598,4.1612,4.1608,4.1627,4.163,4.1625,4.1639,4.1632,4.1646,4.1642,4.1672,4.1665,4.167,4.1668,4.1691,4.1689,4.1767,4.1776,4.1705,4.1706,4.1706,0,4.159,4.1607,4.1611,4.162,4.1623,4.1637,4.1645,4.1635,4.1644,4.1651,4.1664,4.1677,4.1687,4.171,4.1707,4.1718,4.1712,4.1739,4.1714,4.1717,4.1712,4.1711,4.1713,4.1743,4.1744,4.1745,4.1745,0,4.165,4.1647,4.1659,4.1671,4.1681,4.1689,4.1696,4.1704,4.1695,4.1705,4.172,4.1728,4.1744,4.1757,4.1767,4.1768,4.1755,4.1753,4.1759,4.1762,4.1765,4.1764,4.1684,4.1751,4.1751,4.175,4.175,4.175,4.1694,4.1709,4.1714,4.1728,4.1733,4.174,4.1753,4.1752,4.1764,4.1777,4.177,4.1788,4.1792,4.1804,4.1807,4.182,4.181,4.1818,4.182,4.1822,4.1825,4.1763,4.1822,4.1822,4.1822,4.1822,4.1822,0,4.1753,4.1756,4.1769,4.178,4.1791,4.178,4.1787,4.1797,4.1813,4.1818,4.1829,4.1846,4.1859,4.1858,4.187,4.1881,4.1875,4.1884,4.1883,4.1883,4.1834,4.1828,4.1888,4.1888,4.1888,4.1888,4.1888,4.1888,4.1785,4.1809,4.1807,4.1833,4.1836,4.1853,4.1859,4.1865,4.187,4.189,4.1901,4.1901,4.1903,4.1916,4.1927,4.1926,4.1931,4.1942,4.1939,4.1893,4.1887,4.188,4.1874,4.1943,4.1943,4.1987,4.1988,4.1988]}]]